Location: Camrose
(53.0181°N, 112.8304°W)
Time: 01:44:35
(UTC+00:00)

N. Korean satellite - Visible Passes

Search period start: 27 November 2021 00:00
Search period end: 07 December 2021 00:00
Orbit: 447 x 495 km, 97.3° (Epoch: 26 November)

Date Brightness Start Highest point End Pass type
(mag) Time Alt. Az. Time Alt. Az. Time Alt. Az.
27 Nov 7.2 00:00:49 10° S 00:04:22 60° WSW 00:07:54 10° NNW visible
27 Nov 6.7 12:52:51 10° NNE 12:56:17 69° E 12:59:40 10° S visible
27 Nov 8.3 14:27:22 10° NNW 14:29:01 13° WNW 14:30:40 10° W visible
28 Nov 9.9 01:07:47 10° WSW 01:09:31 13° W 01:11:14 10° WNW visible
28 Nov 8.2 12:24:37 10° NNE 12:27:44 32° E 12:30:50 10° SSE visible
28 Nov 7.6 13:58:04 10° N 14:00:50 23° WNW 14:03:34 10° WSW visible
29 Nov 9.2 00:37:50 10° SSW 00:40:49 24° W 00:43:46 10° NW visible
29 Nov 9.4 11:56:48 10° NE 11:59:05 17° E 12:01:20 10° SE visible
29 Nov 6.7 13:29:14 10° N 13:32:32 44° WNW 13:35:46 10° SW visible
30 Nov 7.7 00:08:45 10° S 00:12:13 48° W 00:15:39 10° NNW visible
30 Nov 6.3 13:00:39 10° NNE 13:04:05 86° E 13:07:29 10° SSW visible
30 Nov 8.4 14:35:43 10° NW 14:36:43 11° WNW 14:37:44 10° WNW visible
01 Dec 10.1 01:16:34 10° W 01:17:24 11° W 01:18:14 10° WNW visible
01 Dec 7.8 12:32:18 10° NNE 12:35:33 39° E 12:38:45 10° S visible
01 Dec 7.8 14:06:00 10° NNW 14:08:32 19° WNW 14:11:03 10° WSW visible
02 Dec 9.5 00:45:56 10° SW 00:48:39 20° W 00:51:20 10° NW visible
02 Dec 9.1 12:04:19 10° NE 12:06:53 20° E 12:09:27 10° SE visible
02 Dec 6.9 13:37:04 10° N 13:40:14 36° WNW 13:43:22 10° SW visible
03 Dec 8.1 00:16:39 10° S 00:20:00 39° W 00:23:19 10° NNW visible
03 Dec 10.0 11:37:47 10° E 11:38:06 10° E 11:38:25 10° E visible
03 Dec 6.2 13:08:24 10° N 13:11:49 77° WNW 13:15:11 10° SSW visible
04 Dec 7.3 12:39:58 10° NNE 12:43:16 48° E 12:46:34 10° S visible
04 Dec 8.0 14:13:56 10° NNW 14:16:10 17° WNW 14:18:24 10° WSW visible
05 Dec 9.6 00:54:03 10° SW 00:56:25 17° W 00:58:46 10° NW visible
05 Dec 8.8 12:11:49 10° NE 12:14:38 23° E 12:17:24 10° SSE visible
05 Dec 7.2 13:44:51 10° N 13:47:52 30° WNW 13:50:52 10° SW visible
06 Dec 8.5 00:24:31 10° SSW 00:27:42 32° W 00:30:53 10° NNW visible
06 Dec 9.8 11:44:24 10° ENE 11:45:52 12° E 11:47:18 10° ESE visible
06 Dec 6.3 13:16:05 10° N 13:19:27 62° WNW 13:22:48 10° SSW visible
